Year,Month,Day,Hour,Minute,Value (Times are PST for temperature in C)
2007,04,06,00,00,8.10
2007,04,06,00,01,8.10
2007,04,06,00,02,8.10
2007,04,06,00,03,8.10
2007,04,06,00,04,8.20
2007,04,06,00,05,8.20
2007,04,06,00,06,8.20
2007,04,06,00,07,8.20
2007,04,06,00,08,8.20
2007,04,06,00,09,8.10
2007,04,06,00,10,8.10
2007,04,06,00,11,8.10
2007,04,06,00,12,8.10
2007,04,06,00,13,8.10
2007,04,06,00,14,8.00
2007,04,06,00,15,8.00
2007,04,06,00,16,8.00
2007,04,06,00,17,8.00
2007,04,06,00,18,8.00
2007,04,06,00,19,8.00
2007,04,06,00,20,7.90
2007,04,06,00,21,7.90
2007,04,06,00,22,7.90
2007,04,06,00,23,7.80
2007,04,06,00,24,7.80
2007,04,06,00,25,7.80
2007,04,06,00,26,7.70
2007,04,06,00,27,7.70
2007,04,06,00,28,7.70
2007,04,06,00,29,7.70
2007,04,06,00,30,7.70
2007,04,06,00,31,7.70
2007,04,06,00,32,7.60
2007,04,06,00,33,7.60
2007,04,06,00,34,7.60
2007,04,06,00,35,7.60
2007,04,06,00,36,7.50
2007,04,06,00,37,7.50
2007,04,06,00,38,7.50
2007,04,06,00,39,7.50
2007,04,06,00,40,7.40
2007,04,06,00,41,7.40
2007,04,06,00,42,7.40
2007,04,06,00,43,7.40
2007,04,06,00,44,7.40
2007,04,06,00,45,7.40
2007,04,06,00,46,7.30
2007,04,06,00,47,7.30
2007,04,06,00,48,7.30
2007,04,06,00,49,7.30
2007,04,06,00,50,7.30
2007,04,06,00,51,7.30
2007,04,06,00,52,7.30
2007,04,06,00,53,7.30
2007,04,06,00,54,7.30
2007,04,06,00,55,7.30
2007,04,06,00,56,7.30
2007,04,06,00,57,7.30
2007,04,06,00,58,7.30
2007,04,06,00,59,7.30
2007,04,06,01,00,7.30
2007,04,06,01,01,7.30
2007,04,06,01,02,7.30
2007,04,06,01,03,7.30
2007,04,06,01,04,7.30
2007,04,06,01,05,7.30
2007,04,06,01,06,7.30
2007,04,06,01,07,7.30
2007,04,06,01,08,7.30
2007,04,06,01,09,7.30
2007,04,06,01,10,7.30
2007,04,06,01,11,7.30
2007,04,06,01,12,7.30
2007,04,06,01,13,7.30
2007,04,06,01,14,7.30
2007,04,06,01,15,7.30
2007,04,06,01,16,7.30
2007,04,06,01,17,7.30
2007,04,06,01,18,7.30
2007,04,06,01,19,7.30
2007,04,06,01,20,7.30
2007,04,06,01,21,7.30
2007,04,06,01,22,7.30
2007,04,06,01,23,7.30
2007,04,06,01,24,7.30
2007,04,06,01,25,7.30
2007,04,06,01,26,7.30
2007,04,06,01,27,7.30
2007,04,06,01,28,7.30
2007,04,06,01,29,7.30
2007,04,06,01,30,7.30
2007,04,06,01,31,7.30
2007,04,06,01,32,7.30
2007,04,06,01,33,7.30
2007,04,06,01,34,7.40
2007,04,06,01,35,7.30
2007,04,06,01,36,7.40
2007,04,06,01,37,7.30
2007,04,06,01,38,7.30
2007,04,06,01,39,7.30
2007,04,06,01,40,7.30
2007,04,06,01,41,7.30
2007,04,06,01,42,7.30
2007,04,06,01,43,7.30
2007,04,06,01,44,7.30
2007,04,06,01,45,7.30
2007,04,06,01,46,7.40
2007,04,06,01,47,7.40
2007,04,06,01,48,7.40
2007,04,06,01,49,7.40
2007,04,06,01,50,7.40
2007,04,06,01,51,7.40
2007,04,06,01,52,7.40
2007,04,06,01,53,7.40
2007,04,06,01,54,7.40
2007,04,06,01,55,7.40
2007,04,06,01,56,7.40
2007,04,06,01,57,7.40
2007,04,06,01,58,7.40
2007,04,06,01,59,7.40
2007,04,06,02,00,7.40
2007,04,06,02,01,7.40
2007,04,06,02,02,7.40
2007,04,06,02,03,7.40
2007,04,06,02,04,7.40
2007,04,06,02,05,7.50
2007,04,06,02,06,7.50
2007,04,06,02,07,7.50
2007,04,06,02,08,7.50
2007,04,06,02,09,7.50
2007,04,06,02,10,7.60
2007,04,06,02,11,7.60
2007,04,06,02,12,7.60
2007,04,06,02,13,7.60
2007,04,06,02,14,7.60
2007,04,06,02,15,7.70
2007,04,06,02,16,7.70
2007,04,06,02,17,7.70
2007,04,06,02,18,7.70
2007,04,06,02,19,7.70
2007,04,06,02,20,7.70
2007,04,06,02,21,7.70
2007,04,06,02,22,7.70
2007,04,06,02,23,7.70
2007,04,06,02,24,7.80
2007,04,06,02,25,7.80
2007,04,06,02,26,7.80
2007,04,06,02,27,7.80
2007,04,06,02,28,7.80
2007,04,06,02,29,7.80
2007,04,06,02,30,7.80
2007,04,06,02,31,7.80
2007,04,06,02,32,7.80
2007,04,06,02,33,7.80
2007,04,06,02,34,7.80
2007,04,06,02,35,7.70
2007,04,06,02,36,7.70
2007,04,06,02,37,7.70
2007,04,06,02,38,7.70
2007,04,06,02,39,7.70
2007,04,06,02,40,7.60
2007,04,06,02,41,7.60
2007,04,06,02,42,7.60
2007,04,06,02,43,7.50
2007,04,06,02,44,7.50
2007,04,06,02,45,7.40
2007,04,06,02,46,7.40
2007,04,06,02,47,7.40
2007,04,06,02,48,7.40
2007,04,06,02,49,7.40
2007,04,06,02,50,7.40
2007,04,06,02,51,7.40
2007,04,06,02,52,7.50
2007,04,06,02,53,7.50
2007,04,06,02,54,7.50
2007,04,06,02,55,7.60
2007,04,06,02,56,7.60
2007,04,06,02,57,7.60
2007,04,06,02,58,7.70
2007,04,06,02,59,7.70
2007,04,06,03,00,7.70
2007,04,06,03,01,7.70
2007,04,06,03,02,7.70
2007,04,06,03,03,7.70
2007,04,06,03,04,7.70
2007,04,06,03,05,7.70
2007,04,06,03,06,7.70
2007,04,06,03,07,7.70
2007,04,06,03,08,7.70
2007,04,06,03,09,7.70
2007,04,06,03,10,7.70
2007,04,06,03,11,7.70
2007,04,06,03,12,7.70
2007,04,06,03,13,7.60
2007,04,06,03,14,7.60
2007,04,06,03,15,7.60
2007,04,06,03,16,7.60
2007,04,06,03,17,7.60
2007,04,06,03,18,7.60
2007,04,06,03,19,7.60
2007,04,06,03,20,7.60
2007,04,06,03,21,7.60
2007,04,06,03,22,7.60
2007,04,06,03,23,7.60
2007,04,06,03,24,7.60
2007,04,06,03,25,7.60
2007,04,06,03,26,7.60
2007,04,06,03,27,7.70
2007,04,06,03,28,7.70
2007,04,06,03,29,7.80
2007,04,06,03,30,7.80
2007,04,06,03,31,7.80
2007,04,06,03,32,7.80
2007,04,06,03,33,7.80
2007,04,06,03,34,7.90
2007,04,06,03,35,7.90
2007,04,06,03,36,7.90
2007,04,06,03,37,7.90
2007,04,06,03,38,7.90
2007,04,06,03,39,7.90
2007,04,06,03,40,7.90
2007,04,06,03,41,7.90
2007,04,06,03,42,7.90
2007,04,06,03,43,7.90
2007,04,06,03,44,7.90
2007,04,06,03,45,7.90
2007,04,06,03,46,7.90
2007,04,06,03,47,7.90
2007,04,06,03,48,7.90
2007,04,06,03,49,7.80
2007,04,06,03,50,7.80
2007,04,06,03,51,7.80
2007,04,06,03,52,7.90
2007,04,06,03,53,7.90
2007,04,06,03,54,7.90
2007,04,06,03,55,7.90
2007,04,06,03,56,7.90
2007,04,06,03,57,7.90
2007,04,06,03,58,7.90
2007,04,06,03,59,7.90
2007,04,06,04,00,7.80
2007,04,06,04,01,7.80
2007,04,06,04,02,7.80
2007,04,06,04,03,7.70
2007,04,06,04,04,7.70
2007,04,06,04,05,7.70
2007,04,06,04,06,7.70
2007,04,06,04,07,7.70
2007,04,06,04,08,7.70
2007,04,06,04,09,7.70
2007,04,06,04,10,7.70
2007,04,06,04,11,7.70
2007,04,06,04,12,7.70
2007,04,06,04,13,7.70
2007,04,06,04,14,7.80
2007,04,06,04,15,7.80
2007,04,06,04,16,7.80
2007,04,06,04,17,7.80
2007,04,06,04,18,7.90
2007,04,06,04,19,7.80
2007,04,06,04,20,7.80
2007,04,06,04,21,7.80
2007,04,06,04,22,7.80
2007,04,06,04,23,7.80
2007,04,06,04,24,7.80
2007,04,06,04,25,7.80
2007,04,06,04,26,7.90
2007,04,06,04,27,7.90
2007,04,06,04,28,7.90
2007,04,06,04,29,8.00
2007,04,06,04,30,7.90
2007,04,06,04,31,7.90
2007,04,06,04,32,7.90
2007,04,06,04,33,7.90
2007,04,06,04,34,7.90
2007,04,06,04,35,7.80
2007,04,06,04,36,7.80
2007,04,06,04,37,7.70
2007,04,06,04,38,7.70
2007,04,06,04,39,7.60
2007,04,06,04,40,7.60
2007,04,06,04,41,7.60
2007,04,06,04,42,7.60
2007,04,06,04,43,7.50
2007,04,06,04,44,7.50
2007,04,06,04,45,7.50
2007,04,06,04,46,7.50
2007,04,06,04,47,7.40
2007,04,06,04,48,7.40
2007,04,06,04,49,7.40
2007,04,06,04,50,7.40
2007,04,06,04,51,7.40
2007,04,06,04,52,7.40
2007,04,06,04,53,7.50
2007,04,06,04,54,7.50
2007,04,06,04,55,7.50
2007,04,06,04,56,7.50
2007,04,06,04,57,7.50
2007,04,06,04,58,7.50
2007,04,06,04,59,7.50
2007,04,06,05,00,7.50
2007,04,06,05,01,7.40
2007,04,06,05,02,7.30
2007,04,06,05,03,7.30
2007,04,06,05,04,7.30
2007,04,06,05,05,7.20
2007,04,06,05,06,7.20
2007,04,06,05,07,7.20
2007,04,06,05,08,7.20
2007,04,06,05,09,7.20
2007,04,06,05,10,7.20
2007,04,06,05,11,7.20
2007,04,06,05,12,7.20
2007,04,06,05,13,7.20
2007,04,06,05,14,7.20
2007,04,06,05,15,7.20
2007,04,06,05,16,7.20
2007,04,06,05,17,7.30
2007,04,06,05,18,7.30
2007,04,06,05,19,7.30
2007,04,06,05,20,7.30
2007,04,06,05,21,7.30
2007,04,06,05,22,7.30
2007,04,06,05,23,7.30
2007,04,06,05,24,7.20
2007,04,06,05,25,7.20
2007,04,06,05,26,7.20
2007,04,06,05,27,7.20
2007,04,06,05,28,7.10
2007,04,06,05,29,7.10
2007,04,06,05,30,7.10
2007,04,06,05,31,7.00
2007,04,06,05,32,7.00
2007,04,06,05,33,6.90
2007,04,06,05,34,6.90
2007,04,06,05,35,6.90
2007,04,06,05,36,6.90
2007,04,06,05,37,6.80
2007,04,06,05,38,6.80
2007,04,06,05,39,6.80
2007,04,06,05,40,6.80
2007,04,06,05,41,6.80
2007,04,06,05,42,6.80
2007,04,06,05,43,6.80
2007,04,06,05,44,6.80
2007,04,06,05,45,6.80
2007,04,06,05,46,6.80
2007,04,06,05,47,6.70
2007,04,06,05,48,6.70
2007,04,06,05,49,6.70
2007,04,06,05,50,6.70
2007,04,06,05,51,6.70
2007,04,06,05,52,6.70
2007,04,06,05,53,6.70
2007,04,06,05,54,6.70
2007,04,06,05,55,6.70
2007,04,06,05,56,6.70
2007,04,06,05,57,6.80
2007,04,06,05,58,6.80
2007,04,06,05,59,6.80
2007,04,06,06,00,6.80
2007,04,06,06,01,6.80
2007,04,06,06,02,6.80
2007,04,06,06,03,6.80
2007,04,06,06,04,6.80
2007,04,06,06,05,6.80
2007,04,06,06,06,6.80
2007,04,06,06,07,6.80
2007,04,06,06,08,6.80
2007,04,06,06,09,6.80
2007,04,06,06,10,6.80
2007,04,06,06,11,6.70
2007,04,06,06,12,6.70
2007,04,06,06,13,6.70
2007,04,06,06,14,6.70
2007,04,06,06,15,6.70
2007,04,06,06,16,6.70
2007,04,06,06,17,6.70
2007,04,06,06,18,6.70
2007,04,06,06,19,6.70
2007,04,06,06,20,6.70
2007,04,06,06,21,6.70
2007,04,06,06,22,6.70
2007,04,06,06,23,6.80
2007,04,06,06,24,6.80
2007,04,06,06,25,6.80
2007,04,06,06,26,6.80
2007,04,06,06,27,6.80
2007,04,06,06,28,6.80
2007,04,06,06,29,6.80
2007,04,06,06,30,6.80
2007,04,06,06,31,6.80
2007,04,06,06,32,6.80
2007,04,06,06,33,6.80
2007,04,06,06,34,6.80
2007,04,06,06,35,6.80
2007,04,06,06,36,6.80
2007,04,06,06,37,6.80
2007,04,06,06,38,6.80
2007,04,06,06,39,6.90
2007,04,06,06,40,6.90
2007,04,06,06,41,6.90
2007,04,06,06,42,7.00
2007,04,06,06,43,7.00
2007,04,06,06,44,7.00
2007,04,06,06,45,7.00
2007,04,06,06,46,7.00
2007,04,06,06,47,7.00
2007,04,06,06,48,7.00
2007,04,06,06,49,6.90
2007,04,06,06,50,6.90
2007,04,06,06,51,6.90
2007,04,06,06,52,6.90
2007,04,06,06,53,6.90
2007,04,06,06,54,6.90
2007,04,06,06,55,6.90
2007,04,06,06,56,6.90
2007,04,06,06,57,6.90
2007,04,06,06,58,6.90
2007,04,06,06,59,6.90
2007,04,06,07,00,6.90
2007,04,06,07,01,6.90
2007,04,06,07,02,6.90
2007,04,06,07,03,6.90
2007,04,06,07,04,7.00
2007,04,06,07,05,7.00
2007,04,06,07,06,7.00
2007,04,06,07,07,7.00
2007,04,06,07,08,7.00
2007,04,06,07,09,7.00
2007,04,06,07,10,7.00
2007,04,06,07,11,7.00
2007,04,06,07,12,7.00
2007,04,06,07,13,7.00
2007,04,06,07,14,7.00
2007,04,06,07,15,7.10
2007,04,06,07,16,7.10
2007,04,06,07,17,7.10
2007,04,06,07,18,7.10
2007,04,06,07,19,7.10
2007,04,06,07,20,7.20
2007,04,06,07,21,7.20
2007,04,06,07,22,7.20
2007,04,06,07,23,7.20
2007,04,06,07,24,7.20
2007,04,06,07,25,7.20
2007,04,06,07,26,7.20
2007,04,06,07,27,7.20
2007,04,06,07,28,7.20
2007,04,06,07,29,7.20
2007,04,06,07,30,7.20
2007,04,06,07,31,7.20
2007,04,06,07,32,7.20
2007,04,06,07,33,7.20
2007,04,06,07,34,7.20
2007,04,06,07,35,7.20
2007,04,06,07,36,7.20
2007,04,06,07,37,7.20
2007,04,06,07,38,7.20
2007,04,06,07,39,7.20
2007,04,06,07,40,7.20
2007,04,06,07,41,7.20
2007,04,06,07,42,7.20
2007,04,06,07,43,7.30
2007,04,06,07,44,7.30
2007,04,06,07,45,7.30
2007,04,06,07,46,7.30
2007,04,06,07,47,7.30
2007,04,06,07,48,7.30
2007,04,06,07,49,7.30
2007,04,06,07,50,7.30
2007,04,06,07,51,7.30
2007,04,06,07,52,7.30
2007,04,06,07,53,7.30
2007,04,06,07,54,7.30
2007,04,06,07,55,7.30
2007,04,06,07,56,7.30
2007,04,06,07,57,7.30
2007,04,06,07,58,7.30
2007,04,06,07,59,7.30
2007,04,06,08,00,7.30
2007,04,06,08,01,7.30
2007,04,06,08,02,7.30
2007,04,06,08,03,7.30
2007,04,06,08,04,7.30
2007,04,06,08,05,7.40
2007,04,06,08,06,7.30
2007,04,06,08,07,7.40
2007,04,06,08,08,7.40
2007,04,06,08,09,7.40
2007,04,06,08,10,7.40
2007,04,06,08,11,7.40
2007,04,06,08,12,7.40
2007,04,06,08,13,7.40
2007,04,06,08,14,7.40
2007,04,06,08,15,7.40
2007,04,06,08,16,7.40
2007,04,06,08,17,7.40
2007,04,06,08,18,7.40
2007,04,06,08,19,7.40
2007,04,06,08,20,7.40
2007,04,06,08,21,7.40
2007,04,06,08,22,7.40
2007,04,06,08,23,7.40
2007,04,06,08,24,7.40
2007,04,06,08,25,7.40
2007,04,06,08,26,7.40
2007,04,06,08,27,7.40
2007,04,06,08,28,7.40
2007,04,06,08,29,7.40
2007,04,06,08,30,7.40
2007,04,06,08,31,7.50
2007,04,06,08,32,7.50
2007,04,06,08,33,7.50
2007,04,06,08,34,7.50
2007,04,06,08,35,7.50
2007,04,06,08,36,7.50
2007,04,06,08,37,7.50
2007,04,06,08,38,7.60
2007,04,06,08,39,7.60
2007,04,06,08,40,7.60
2007,04,06,08,41,7.60
2007,04,06,08,42,7.70
2007,04,06,08,43,7.70
2007,04,06,08,44,7.70
2007,04,06,08,45,7.70
2007,04,06,08,46,7.80
2007,04,06,08,47,7.80
2007,04,06,08,48,7.80
2007,04,06,08,49,7.90
2007,04,06,08,50,7.90
2007,04,06,08,51,7.90
2007,04,06,08,52,8.00
2007,04,06,08,53,8.00
2007,04,06,08,54,8.00
2007,04,06,08,55,8.00
2007,04,06,08,56,8.10
2007,04,06,08,57,8.10
2007,04,06,08,58,8.10
2007,04,06,08,59,8.10
2007,04,06,09,00,8.20
2007,04,06,09,01,8.20
2007,04,06,09,02,8.20
2007,04,06,09,03,8.20
2007,04,06,09,04,8.20
2007,04,06,09,05,8.30
2007,04,06,09,06,8.30
2007,04,06,09,07,8.30
2007,04,06,09,08,8.30
2007,04,06,09,09,8.40
2007,04,06,09,10,8.40
2007,04,06,09,11,8.40
2007,04,06,09,12,8.50
2007,04,06,09,13,8.50
2007,04,06,09,14,8.60
2007,04,06,09,15,8.60
2007,04,06,09,16,8.60
2007,04,06,09,17,8.60
2007,04,06,09,18,8.60
2007,04,06,09,19,8.60
2007,04,06,09,20,8.60
2007,04,06,09,21,8.60
2007,04,06,09,22,8.60
2007,04,06,09,23,8.60
2007,04,06,09,24,8.60
2007,04,06,09,25,8.60
2007,04,06,09,26,8.60
2007,04,06,09,27,8.60
2007,04,06,09,28,8.60
2007,04,06,09,29,8.60
2007,04,06,09,30,8.60
2007,04,06,09,31,8.70
2007,04,06,09,32,8.70
2007,04,06,09,33,8.80
2007,04,06,09,34,8.80
2007,04,06,09,35,8.90
2007,04,06,09,36,9.00
2007,04,06,09,37,9.10
2007,04,06,09,38,9.10
2007,04,06,09,39,9.20
2007,04,06,09,40,9.20
2007,04,06,09,41,9.20
2007,04,06,09,42,9.20
2007,04,06,09,43,9.20
2007,04,06,09,44,9.20
2007,04,06,09,45,9.20
2007,04,06,09,46,9.20
2007,04,06,09,47,9.20
2007,04,06,09,48,9.20
2007,04,06,09,49,9.20
2007,04,06,09,50,9.20
2007,04,06,09,51,9.10
2007,04,06,09,52,9.20
2007,04,06,09,53,9.20
2007,04,06,09,54,9.20
2007,04,06,09,55,9.20
2007,04,06,09,56,9.30
2007,04,06,09,57,9.40
2007,04,06,09,58,9.50
2007,04,06,09,59,9.50
2007,04,06,10,00,9.60
2007,04,06,10,01,9.70
2007,04,06,10,02,9.80
2007,04,06,10,03,9.90
2007,04,06,10,04,10.10
2007,04,06,10,05,10.20
2007,04,06,10,06,10.30
2007,04,06,10,07,10.40
2007,04,06,10,08,10.50
2007,04,06,10,09,10.60
2007,04,06,10,10,10.70
2007,04,06,10,11,10.80
2007,04,06,10,12,11.00
2007,04,06,10,13,11.10
2007,04,06,10,14,11.20
2007,04,06,10,15,11.30
2007,04,06,10,16,11.40
2007,04,06,10,17,11.50
2007,04,06,10,18,11.70
2007,04,06,10,19,11.80
2007,04,06,10,20,12.00
2007,04,06,10,21,12.10
2007,04,06,10,22,12.20
2007,04,06,10,23,12.30
2007,04,06,10,24,12.50
2007,04,06,10,25,12.50
2007,04,06,10,26,12.70
2007,04,06,10,27,12.80
2007,04,06,10,28,12.90
2007,04,06,10,29,13.00
2007,04,06,10,30,13.20
2007,04,06,10,31,13.30
2007,04,06,10,32,13.40
2007,04,06,10,33,13.60
2007,04,06,10,34,13.70
2007,04,06,10,35,13.80
2007,04,06,10,36,14.00
2007,04,06,10,37,14.10
2007,04,06,10,38,14.20
2007,04,06,10,39,14.20
2007,04,06,10,40,14.20
2007,04,06,10,41,14.20
2007,04,06,10,42,14.20
2007,04,06,10,43,14.30
2007,04,06,10,44,14.30
2007,04,06,10,45,14.30
2007,04,06,10,46,14.30
2007,04,06,10,47,14.30
2007,04,06,10,48,14.40
2007,04,06,10,49,14.40
2007,04,06,10,50,14.50
2007,04,06,10,51,14.50
2007,04,06,10,52,14.50
2007,04,06,10,53,14.40
2007,04,06,10,54,14.30
2007,04,06,10,55,14.20
2007,04,06,10,56,14.10
2007,04,06,10,57,14.00
2007,04,06,10,58,13.90
2007,04,06,10,59,13.80
2007,04,06,11,00,13.80
2007,04,06,11,01,13.70
2007,04,06,11,02,13.70
2007,04,06,11,03,13.70
2007,04,06,11,04,13.80
2007,04,06,11,05,13.80
2007,04,06,11,06,13.80
2007,04,06,11,07,13.90
2007,04,06,11,08,13.90
2007,04,06,11,09,14.00
2007,04,06,11,10,14.00
2007,04,06,11,11,14.10
2007,04,06,11,12,14.10
2007,04,06,11,13,14.00
2007,04,06,11,14,14.00
2007,04,06,11,15,14.00
2007,04,06,11,16,13.90
2007,04,06,11,17,14.00
2007,04,06,11,18,14.00
2007,04,06,11,19,14.10
2007,04,06,11,20,14.20
2007,04,06,11,21,14.20
2007,04,06,11,22,14.20
2007,04,06,11,23,14.20
2007,04,06,11,24,14.20
2007,04,06,11,25,14.20
2007,04,06,11,26,14.30
2007,04,06,11,27,14.30
2007,04,06,11,28,14.30
2007,04,06,11,29,14.40
2007,04,06,11,30,14.40
2007,04,06,11,31,14.40
2007,04,06,11,32,14.50
2007,04,06,11,33,14.40
2007,04,06,11,34,14.40
2007,04,06,11,35,14.30
2007,04,06,11,36,14.30
2007,04,06,11,37,14.30
2007,04,06,11,38,14.30
2007,04,06,11,39,14.30
2007,04,06,11,40,14.30
2007,04,06,11,41,14.30
2007,04,06,11,42,14.30
2007,04,06,11,43,14.30
2007,04,06,11,44,14.40
2007,04,06,11,45,14.40
2007,04,06,11,46,14.50
2007,04,06,11,47,14.60
2007,04,06,11,48,14.60
2007,04,06,11,49,14.60
2007,04,06,11,50,14.60
2007,04,06,11,51,14.60
2007,04,06,11,52,14.60
2007,04,06,11,53,14.60
2007,04,06,11,54,14.70
2007,04,06,11,55,14.70
2007,04,06,11,56,14.70
2007,04,06,11,57,14.80
2007,04,06,11,58,14.90
2007,04,06,11,59,14.90
2007,04,06,12,00,15.00
2007,04,06,12,01,15.00
2007,04,06,12,02,15.00
2007,04,06,12,03,14.90
2007,04,06,12,04,14.80
2007,04,06,12,05,14.70
2007,04,06,12,06,14.80
2007,04,06,12,07,14.80
2007,04,06,12,08,14.80
2007,04,06,12,09,14.80
2007,04,06,12,10,14.80
2007,04,06,12,11,14.90
2007,04,06,12,12,15.00
2007,04,06,12,13,15.00
2007,04,06,12,14,15.00
2007,04,06,12,15,15.00
2007,04,06,12,16,15.00
2007,04,06,12,17,15.00
2007,04,06,12,18,15.00
2007,04,06,12,19,15.00
2007,04,06,12,20,15.00
2007,04,06,12,21,15.10
2007,04,06,12,22,15.20
2007,04,06,12,23,15.20
2007,04,06,12,24,15.30
2007,04,06,12,25,15.30
2007,04,06,12,26,15.30
2007,04,06,12,27,15.40
2007,04,06,12,28,15.40
2007,04,06,12,29,15.40
2007,04,06,12,30,15.40
2007,04,06,12,31,15.40
2007,04,06,12,32,15.40
2007,04,06,12,33,15.50
2007,04,06,12,34,15.50
2007,04,06,12,35,15.50
2007,04,06,12,36,15.50
2007,04,06,12,37,15.50
2007,04,06,12,38,15.50
2007,04,06,12,39,15.60
2007,04,06,12,40,15.60
2007,04,06,12,41,15.70
2007,04,06,12,42,15.70
2007,04,06,12,43,15.80
2007,04,06,12,44,15.80
2007,04,06,12,45,15.80
2007,04,06,12,46,15.70
2007,04,06,12,47,15.70
2007,04,06,12,48,15.70
2007,04,06,12,49,15.70
2007,04,06,12,50,15.70
2007,04,06,12,51,15.70
2007,04,06,12,52,15.70
2007,04,06,12,53,15.70
2007,04,06,12,54,15.70
2007,04,06,12,55,15.70
2007,04,06,12,56,15.70
2007,04,06,12,57,15.70
2007,04,06,12,58,15.70
2007,04,06,12,59,15.70
2007,04,06,13,00,15.70
2007,04,06,13,01,15.70
2007,04,06,13,02,15.60
2007,04,06,13,03,15.50
2007,04,06,13,04,15.50
2007,04,06,13,05,15.40
2007,04,06,13,06,15.40
2007,04,06,13,07,15.40
2007,04,06,13,08,15.40
2007,04,06,13,09,15.50
2007,04,06,13,10,15.50
2007,04,06,13,11,15.40
2007,04,06,13,12,15.40
2007,04,06,13,13,15.40
2007,04,06,13,14,15.40
2007,04,06,13,15,15.40
2007,04,06,13,16,15.50
2007,04,06,13,17,15.50
2007,04,06,13,18,15.50
2007,04,06,13,19,15.40
2007,04,06,13,20,15.50
2007,04,06,13,21,15.50
2007,04,06,13,22,15.60
2007,04,06,13,23,15.60
2007,04,06,13,24,15.60
2007,04,06,13,25,15.70
2007,04,06,13,26,15.70
2007,04,06,13,27,15.70
2007,04,06,13,28,15.70
2007,04,06,13,29,15.70
2007,04,06,13,30,15.60
2007,04,06,13,31,15.60
2007,04,06,13,32,15.60
2007,04,06,13,33,15.50
2007,04,06,13,34,15.50
2007,04,06,13,35,15.60
2007,04,06,13,36,15.60
2007,04,06,13,37,15.60
2007,04,06,13,38,15.60
2007,04,06,13,39,15.60
2007,04,06,13,40,15.60
2007,04,06,13,41,15.50
2007,04,06,13,42,15.50
2007,04,06,13,43,15.50
2007,04,06,13,44,15.50
2007,04,06,13,45,15.60
2007,04,06,13,46,15.60
2007,04,06,13,47,15.60
2007,04,06,13,48,15.60
2007,04,06,13,49,15.60
2007,04,06,13,50,15.70
2007,04,06,13,51,15.70
2007,04,06,13,52,15.70
2007,04,06,13,53,15.80
2007,04,06,13,54,15.80
2007,04,06,13,55,15.80
2007,04,06,13,56,15.80
2007,04,06,13,57,15.80
2007,04,06,13,58,15.80
2007,04,06,13,59,15.90
2007,04,06,14,00,15.90
2007,04,06,14,01,16.00
2007,04,06,14,02,16.10
2007,04,06,14,03,16.10
2007,04,06,14,04,16.20
2007,04,06,14,05,16.20
2007,04,06,14,06,16.30
2007,04,06,14,07,16.30
2007,04,06,14,08,16.30
2007,04,06,14,09,16.30
2007,04,06,14,10,16.30
2007,04,06,14,11,16.30
2007,04,06,14,12,16.40
2007,04,06,14,13,16.30
2007,04,06,14,14,16.30
2007,04,06,14,15,16.40
2007,04,06,14,16,16.40
2007,04,06,14,17,16.40
2007,04,06,14,18,16.50
2007,04,06,14,19,16.50
2007,04,06,14,20,16.60
2007,04,06,14,21,16.60
2007,04,06,14,22,16.60
2007,04,06,14,23,16.60
2007,04,06,14,24,16.60
2007,04,06,14,25,16.60
2007,04,06,14,26,16.70
2007,04,06,14,27,16.70
2007,04,06,14,28,16.70
2007,04,06,14,29,16.70
2007,04,06,14,30,16.70
2007,04,06,14,31,16.80
2007,04,06,14,32,16.80
2007,04,06,14,33,16.80
2007,04,06,14,34,16.80
2007,04,06,14,35,16.80
2007,04,06,14,36,16.80
2007,04,06,14,37,16.80
2007,04,06,14,38,16.80
2007,04,06,14,39,16.90
2007,04,06,14,40,16.90
2007,04,06,14,41,17.00
2007,04,06,14,42,17.00
2007,04,06,14,43,17.10
2007,04,06,14,44,17.20
2007,04,06,14,45,17.20
2007,04,06,14,46,17.20
2007,04,06,14,47,17.30
2007,04,06,14,48,17.30
2007,04,06,14,49,17.40
2007,04,06,14,50,17.40
2007,04,06,14,51,17.50
2007,04,06,14,52,17.50
2007,04,06,14,53,17.60
2007,04,06,14,54,17.60
2007,04,06,14,55,17.60
2007,04,06,14,56,17.60
2007,04,06,14,57,17.60
2007,04,06,14,58,17.70
2007,04,06,14,59,17.70
2007,04,06,15,00,17.70
2007,04,06,15,01,17.70
2007,04,06,15,02,17.70
2007,04,06,15,03,17.80
2007,04,06,15,04,17.80
2007,04,06,15,05,17.80
2007,04,06,15,06,17.80
2007,04,06,15,07,17.80
2007,04,06,15,08,17.80
2007,04,06,15,09,17.70
2007,04,06,15,10,17.50
2007,04,06,15,11,17.20
2007,04,06,15,12,17.10
2007,04,06,15,13,16.90
2007,04,06,15,14,16.50
2007,04,06,15,15,16.20
2007,04,06,15,16,15.90
2007,04,06,15,17,15.60
2007,04,06,15,18,15.40
2007,04,06,15,19,15.30
2007,04,06,15,20,15.20
2007,04,06,15,21,15.20
2007,04,06,15,22,15.20
2007,04,06,15,23,15.10
2007,04,06,15,24,15.10
2007,04,06,15,25,15.00
2007,04,06,15,26,15.00
2007,04,06,15,27,15.00
2007,04,06,15,28,15.00
2007,04,06,15,29,15.00
2007,04,06,15,30,15.10
2007,04,06,15,31,15.10
2007,04,06,15,32,15.20
2007,04,06,15,33,15.30
2007,04,06,15,34,15.30
2007,04,06,15,35,15.40
2007,04,06,15,36,15.60
2007,04,06,15,37,15.70
2007,04,06,15,38,15.80
2007,04,06,15,39,15.90
2007,04,06,15,40,16.00
2007,04,06,15,41,16.10
2007,04,06,15,42,16.30
2007,04,06,15,43,16.40
2007,04,06,15,44,16.50
2007,04,06,15,45,16.60
2007,04,06,15,46,16.70
2007,04,06,15,47,16.80
2007,04,06,15,48,16.90
2007,04,06,15,49,16.90
2007,04,06,15,50,16.80
2007,04,06,15,51,16.70
2007,04,06,15,52,16.40
2007,04,06,15,53,16.20
2007,04,06,15,54,16.00
2007,04,06,15,55,15.70
2007,04,06,15,56,15.50
2007,04,06,15,57,15.30
2007,04,06,15,58,15.20
2007,04,06,15,59,15.00
2007,04,06,16,00,15.00
2007,04,06,16,01,15.00
2007,04,06,16,02,14.90
2007,04,06,16,03,14.80
2007,04,06,16,04,14.80
2007,04,06,16,05,14.70
2007,04,06,16,06,14.60
2007,04,06,16,07,14.60
2007,04,06,16,08,14.50
2007,04,06,16,09,14.40
2007,04,06,16,10,14.40
2007,04,06,16,11,14.50
2007,04,06,16,12,14.50
2007,04,06,16,13,14.50
2007,04,06,16,14,14.60
2007,04,06,16,15,14.60
2007,04,06,16,16,14.70
2007,04,06,16,17,14.70
2007,04,06,16,18,14.70
2007,04,06,16,19,14.70
2007,04,06,16,20,14.60
2007,04,06,16,21,14.60
2007,04,06,16,22,14.50
2007,04,06,16,23,14.40
2007,04,06,16,24,14.30
2007,04,06,16,25,14.30
2007,04,06,16,26,14.30
2007,04,06,16,27,14.20
2007,04,06,16,28,14.30
2007,04,06,16,29,14.20
2007,04,06,16,30,14.20
2007,04,06,16,31,14.20
2007,04,06,16,32,14.20
2007,04,06,16,33,14.20
2007,04,06,16,34,14.20
2007,04,06,16,35,14.10
2007,04,06,16,36,14.00
2007,04,06,16,37,13.90
2007,04,06,16,38,13.90
2007,04,06,16,39,13.90
2007,04,06,16,40,13.90
2007,04,06,16,41,13.90
2007,04,06,16,42,13.90
2007,04,06,16,43,13.90
2007,04,06,16,44,13.90
2007,04,06,16,45,13.90
2007,04,06,16,46,14.00
2007,04,06,16,47,14.00
2007,04,06,16,48,14.00
2007,04,06,16,49,13.90
2007,04,06,16,50,13.90
2007,04,06,16,51,13.90
2007,04,06,16,52,13.90
2007,04,06,16,53,13.90
2007,04,06,16,54,13.90
2007,04,06,16,55,13.90
2007,04,06,16,56,13.90
2007,04,06,16,57,13.90
2007,04,06,16,58,13.90
2007,04,06,16,59,14.00
2007,04,06,17,00,14.00
2007,04,06,17,01,14.10
2007,04,06,17,02,14.20
2007,04,06,17,03,14.30
2007,04,06,17,04,14.30
2007,04,06,17,05,14.40
2007,04,06,17,06,14.50
2007,04,06,17,07,14.60
2007,04,06,17,08,14.80
2007,04,06,17,09,14.90
2007,04,06,17,10,15.00
2007,04,06,17,11,15.00
2007,04,06,17,12,15.00
2007,04,06,17,13,15.00
2007,04,06,17,14,15.10
2007,04,06,17,15,15.20
2007,04,06,17,16,15.20
2007,04,06,17,17,15.30
2007,04,06,17,18,15.30
2007,04,06,17,19,15.40
2007,04,06,17,20,15.50
2007,04,06,17,21,15.50
2007,04,06,17,22,15.60
2007,04,06,17,23,15.50
2007,04,06,17,24,15.40
2007,04,06,17,25,15.40
2007,04,06,17,26,15.30
2007,04,06,17,27,15.20
2007,04,06,17,28,15.10
2007,04,06,17,29,15.00
2007,04,06,17,30,15.00
2007,04,06,17,31,15.00
2007,04,06,17,32,15.00
2007,04,06,17,33,15.00
2007,04,06,17,34,15.00
2007,04,06,17,35,15.00
2007,04,06,17,36,15.00
2007,04,06,17,37,15.00
2007,04,06,17,38,15.00
2007,04,06,17,39,15.00
2007,04,06,17,40,15.00
2007,04,06,17,41,15.00
2007,04,06,17,42,15.00
2007,04,06,17,43,15.00
2007,04,06,17,44,15.00
2007,04,06,17,45,15.00